Port Heiden, AK

11:38 AM AKDT on April 27, 2017 (GMT -0800)
Port Heiden

Weather History for PAPH - November, 2014

Change the Weather History Date:

Friday, November 7, 2014

  Actual Average Record
Temperature  
Mean Temperature 29 °F -  
Max Temperature 37 °F 37 °F 48 °F (1998)
Min Temperature 21 °F 28 °F 8 °F (2005)
Degree Days  
Heating Degree Days 36    
Moisture  
Dew Point 28 °F    
Average Humidity 78    
Maximum Humidity 81    
Minimum Humidity 65    
Precipitation  
Precipitation 0.01 in - - ()
Sea Level Pressure  
Sea Level Pressure 29.37 in    
Wind  
Wind Speed 10 mph (South)    
Max Wind Speed 17 mph    
Max Gust Speed 23 mph    
Visibility 7 miles    
Events      
Averages and records for this station are not official NWS values.
T = Trace of Precipitation, MM = Missing Value Source: NWS Daily Summary

Daily Weather History Graph

Daily Weather History Graph

Search for Another Location

Airport or City:

Trip Planner

Search our weather history database for the weather conditions in past years. The results will help you decide how hot, cold, wet, or windy it might be!

Date:

Astronomy

Nov. 07, 2014 Rise Set
Actual Time 8:58 AM AKST 5:36 PM AKST
Civil Twilight 8:16 AM AKST 6:18 PM AKST
Nautical Twilight 7:30 AM AKST 7:04 PM AKST
Astronomical Twilight 6:46 AM AKST 7:49 PM AKST
Moon 6:33 PM AKST (11/7) 9:49 AM AKST (11/7)
Length of Visible Light 10h 02m
Length of Day
8h 38m
Full, 99% of the Moon is Illuminated
Nov 7
Full
Nov 14
Last Quarter
Nov 22
New
Nov 29
First Quarter
Dec 6
Full

Hourly Weather History & Observations

Time (AKST) Temp. Windchill Dew Point Humidity Pressure Visibility Wind Dir Wind Speed Gust Speed Precip Events Conditions
12:16 AM 35.6 °F 26.2 °F 28.4 °F 75% 29.24 in 10.0 mi NNE 15.0 mph 21.9 mph 0.01 in   Overcast
12:36 AM 35.6 °F 25.5 °F 28.4 °F 75% 29.24 in 10.0 mi NNE 17.3 mph 23.0 mph 0.03 in   Overcast
12:56 AM 35.6 °F 25.5 °F 28.4 °F 75% 29.23 in 10.0 mi North 17.3 mph - 0.05 in   Overcast
1:16 AM 35.6 °F 25.9 °F 28.4 °F 75% 29.23 in 10.0 mi NNE 16.1 mph 23.0 mph 0.02 in   Overcast
1:36 AM 35.6 °F 26.6 °F 28.4 °F 75% 29.23 in 9.0 mi NNE 13.8 mph - 0.02 in   Overcast
1:56 AM 35.6 °F 25.5 °F 28.4 °F 75% 29.23 in 10.0 mi NNE 17.3 mph - 0.02 in   Overcast
2:16 AM 35.6 °F 25.9 °F 28.4 °F 75% 29.23 in 5.0 mi NE 16.1 mph - N/A   Overcast
2:36 AM 33.8 °F 24.8 °F 26.6 °F 75% 29.24 in 5.0 mi NE 12.7 mph - N/A   Overcast
2:56 AM 33.8 °F 24.8 °F 26.6 °F 75% 29.24 in 5.0 mi NE 12.7 mph - N/A   Overcast
3:16 AM 33.8 °F 25.8 °F 26.6 °F 75% 29.24 in 5.0 mi NE 10.4 mph - 0.01 in   Overcast
3:36 AM 32.0 °F 24.2 °F 26.6 °F 80% 29.25 in 3.0 mi NE 9.2 mph - 0.01 in   Overcast
3:56 AM 32.0 °F 24.2 °F 26.6 °F 80% 29.25 in 3.0 mi NNE 9.2 mph - 0.01 in   Overcast
4:16 AM 32.0 °F - 26.6 °F 80% 29.25 in 2.5 mi Calm Calm - N/A   Overcast
4:36 AM 32.0 °F 25.6 °F 26.6 °F 80% 29.25 in 3.0 mi NNE 6.9 mph - N/A   Overcast
4:56 AM 32.0 °F 26.4 °F 26.6 °F 80% 29.25 in 10.0 mi NNE 5.8 mph - N/A   Overcast
5:16 AM 32.0 °F 28.7 °F 26.6 °F 80% 29.26 in 10.0 mi NNE 3.5 mph - N/A   Overcast
5:36 AM 32.0 °F - 26.6 °F 80% 29.26 in 10.0 mi Calm Calm - N/A   Overcast
5:56 AM 32.0 °F - 26.6 °F 80% 29.27 in 10.0 mi Calm Calm - N/A   Overcast
6:16 AM 32.0 °F - 26.6 °F 80% 29.28 in 10.0 mi Calm Calm - N/A   Overcast
6:36 AM 32.0 °F - 26.6 °F 80% 29.29 in 10.0 mi Calm Calm - N/A   Overcast
6:56 AM 32.0 °F - 26.6 °F 80% 29.30 in 10.0 mi Calm Calm - N/A   Overcast
7:16 AM 32.0 °F - 26.6 °F 80% 29.31 in 6.0 mi Calm Calm - N/A   Overcast
7:36 AM 32.0 °F - 26.6 °F 80% 29.31 in 9.0 mi Calm Calm - N/A   Overcast
7:56 AM 32.0 °F - 26.6 °F 80% 29.32 in 9.0 mi Calm Calm - N/A   Overcast
8:16 AM 32.0 °F - 26.6 °F 80% 29.33 in 6.0 mi Calm Calm - N/A   Overcast
8:36 AM 32.0 °F 26.4 °F 26.6 °F 80% 29.34 in 10.0 mi South 5.8 mph - N/A   Overcast
8:56 AM 32.0 °F 26.4 °F 26.6 °F 80% 29.35 in 0.8 mi South 5.8 mph - N/A   Overcast
9:16 AM 32.0 °F 24.8 °F 26.6 °F 80% 29.36 in 0.8 mi South 8.1 mph - N/A   Overcast
9:36 AM 32.0 °F 24.8 °F 26.6 °F 80% 29.37 in 8.0 mi SSE 8.1 mph - N/A   Overcast
9:56 AM 32.0 °F 24.2 °F 26.6 °F 80% 29.37 in 10.0 mi SSE 9.2 mph - N/A   Overcast
10:16 AM 32.0 °F 25.6 °F 26.6 °F 80% 29.38 in 10.0 mi SSE 6.9 mph - N/A   Overcast
10:36 AM 32.0 °F 25.6 °F 26.6 °F 80% 29.39 in 10.0 mi SSE 6.9 mph - N/A   Overcast
10:56 AM 33.8 °F 27.0 °F 26.6 °F 75% 29.39 in 10.0 mi SSE 8.1 mph - N/A   Overcast
11:16 AM 33.8 °F 27.0 °F 26.6 °F 75% 29.40 in 10.0 mi SSE 8.1 mph - N/A   Overcast
11:36 AM 33.8 °F 26.4 °F 26.6 °F 75% 29.40 in 10.0 mi SSE 9.2 mph - N/A   Overcast
11:56 AM 33.8 °F 26.4 °F 26.6 °F 75% 29.39 in 5.0 mi South 9.2 mph - N/A   Overcast
12:16 PM 33.8 °F 26.4 °F 26.6 °F 75% 29.40 in 2.5 mi South 9.2 mph - N/A   Overcast
12:36 PM 33.8 °F 26.4 °F 28.4 °F 81% 29.40 in 2.5 mi SSE 9.2 mph - N/A   Overcast
12:56 PM 33.8 °F 27.7 °F 28.4 °F 81% 29.41 in 3.0 mi South 6.9 mph - N/A   Overcast
1:16 PM 35.6 °F 27.5 °F 30.2 °F 81% 29.41 in 3.0 mi SSW 11.5 mph - N/A   Overcast
1:36 PM 35.6 °F 28.0 °F 30.2 °F 81% 29.41 in 6.0 mi SW 10.4 mph - N/A   Overcast
1:56 PM 35.6 °F 26.6 °F 30.2 °F 81% 29.42 in 8.0 mi SW 13.8 mph - N/A   Overcast
2:16 PM 35.6 °F 27.1 °F 30.2 °F 81% 29.41 in 10.0 mi SSW 12.7 mph - N/A   Overcast
2:36 PM 37.4 °F 29.8 °F 30.2 °F 75% 29.42 in 10.0 mi SW 11.5 mph - N/A   Overcast
2:56 PM 37.4 °F 30.3 °F 30.2 °F 75% 29.43 in 10.0 mi SW 10.4 mph - N/A   Overcast
3:16 PM 37.4 °F 30.3 °F 30.2 °F 75% 29.43 in 10.0 mi SW 10.4 mph - N/A   Overcast
3:36 PM 37.4 °F 30.3 °F 30.2 °F 75% 29.43 in 10.0 mi SW 10.4 mph - N/A   Overcast
3:56 PM 37.4 °F 29.8 °F 28.4 °F 70% 29.44 in 10.0 mi SW 11.5 mph - N/A   Overcast
4:16 PM 37.4 °F 30.3 °F 30.2 °F 75% 29.44 in 10.0 mi SSW 10.4 mph - N/A   Overcast
4:36 PM 37.4 °F 30.8 °F 30.2 °F 75% 29.44 in 10.0 mi SSW 9.2 mph - N/A   Overcast
4:56 PM 35.6 °F 28.6 °F 28.4 °F 75% 29.44 in 10.0 mi SSW 9.2 mph - N/A   Overcast
5:16 PM 35.6 °F 29.2 °F 28.4 °F 75% 29.46 in 10.0 mi SW 8.1 mph - N/A   Overcast
5:36 PM 35.6 °F 29.9 °F 28.4 °F 75% 29.46 in 9.0 mi SSW 6.9 mph - N/A   Overcast
5:56 PM 35.6 °F 30.7 °F 28.4 °F 75% 29.46 in 2.5 mi South 5.8 mph - N/A   Overcast
6:16 PM 35.6 °F 29.9 °F 28.4 °F 75% 29.46 in 7.0 mi South 6.9 mph - N/A   Overcast
6:36 PM 33.8 °F 26.4 °F 28.4 °F 81% 29.47 in 8.0 mi SSE 9.2 mph - N/A   Overcast
6:56 PM 35.6 °F 28.6 °F 28.4 °F 75% 29.46 in 5.0 mi South 9.2 mph - N/A   Overcast
7:16 PM 35.6 °F 29.2 °F 28.4 °F 75% 29.46 in 2.0 mi South 8.1 mph - N/A   Overcast
7:36 PM 33.8 °F 25.8 °F 28.4 °F 81% 29.45 in 1.5 mi SSW 10.4 mph - N/A   Overcast
7:56 PM 33.8 °F 26.4 °F 28.4 °F 81% 29.45 in 8.0 mi South 9.2 mph - N/A   Overcast
8:16 PM 33.8 °F 26.4 °F 28.4 °F 81% 29.45 in 4.0 mi SSW 9.2 mph - N/A   Overcast
8:36 PM 33.8 °F 27.0 °F 28.4 °F 81% 29.46 in 10.0 mi South 8.1 mph - N/A   Overcast
8:56 PM 33.8 °F 27.0 °F 28.4 °F 81% 29.46 in 10.0 mi South 8.1 mph - N/A   Overcast
9:16 PM 33.8 °F 25.8 °F 26.6 °F 75% 29.47 in 10.0 mi SSW 10.4 mph - N/A   Overcast
9:36 PM 33.8 °F 26.4 °F 28.4 °F 81% 29.47 in 10.0 mi SSW 9.2 mph - N/A   Overcast
9:56 PM 33.8 °F 27.0 °F 28.4 °F 81% 29.47 in 9.0 mi South 8.1 mph - N/A   Overcast
10:16 PM 33.8 °F 27.0 °F 28.4 °F 81% 29.48 in 2.0 mi South 8.1 mph - N/A   Overcast
10:36 PM 33.8 °F 26.4 °F 28.4 °F 81% 29.48 in 1.0 mi South 9.2 mph - N/A   Overcast
10:56 PM 33.8 °F 25.8 °F 28.4 °F 81% 29.48 in 10.0 mi South 10.4 mph - N/A   Overcast
11:16 PM 35.6 °F 28.6 °F 28.4 °F 75% 29.48 in 10.0 mi South 9.2 mph - N/A   Overcast
11:36 PM 33.8 °F 26.4 °F 28.4 °F 81% 29.48 in 10.0 mi South 9.2 mph - N/A   Overcast
11:56 PM 33.8 °F 27.0 °F 28.4 °F 81% 29.48 in 10.0 mi South 8.1 mph - N/A   Overcast